Flag for U.S.A. Weather past 2 weeks in Winamac, Indiana, U.S.A.

Now
57 °F

Passing clouds.


Feels Like: 54 °F
Forecast: 32 / 58 °F
Wind: 14 mph from Northwest

Location: Porter County Municipal Airport

Current Time: Mar 30, 2015 at 2:36:03 PM

Latest Report: Mar 30, 2015 at 1:56 PM


Visibility: 10 mi

Pressure: 30.05 "Hg

Humidity: 31%

Dew point: 26 °F

Location of WinamacLocation

Historic Weather in Winamac — Graph

°F

Winamac temperature yesterday

Maximum temperature yesterday: 46 °F (at 9:56 PM)
Minimum temperature yesterday: 22 °F (at 2:56 AM)
Average temperature yesterday: 34 °F

Past Weeks' High & Low Weather Summary

 TemperatureHumidityPressure
High71 °F (Mar 16, 5:56 PM)100% (Mar 20, 6:56 AM)30.38 "Hg (Mar 20, 6:56 AM)
Low13 °F (Mar 24, 5:56 AM)21% (Mar 18, 3:56 PM)29.78 "Hg (Mar 16, 7:56 PM)
Average36 °F65%30.15 "Hg
* Reported Mar 15 12:56 PM — Mar 30 12:56 PM, Winamac, Weather by CustomWeather, © 2015

Note: Actual official high and low records may vary slightly from our data, if they occured in-between our weather recording intervals... More about our weather records

Advertising

Winamac weather history for previous 24 hours

 ConditionsComfort  
Time TempWeatherWind HumidityBarometerVisibility
12:56 PM
Mon, Mar 30
55 °FSunny.17 mph30%30.06 "Hg10 mi
11:56 AM52 °FSunny.20 mph40%30.07 "Hg10 mi
10:56 AM49 °FSunny.13 mph46%30.08 "Hg10 mi
9:56 AM43 °FSunny.14 mph60%30.07 "Hg10 mi
8:56 AM38 °FSunny.12 mph70%30.06 "Hg10 mi
7:56 AM33 °FSunny.9 mph82%30.04 "Hg10 mi
6:56 AM32 °FClear.9 mph85%30.01 "Hg10 mi
5:56 AM31 °FClear.8 mph89%30.00 "Hg10 mi
4:56 AM32 °FClear.5 mph88%29.99 "Hg10 mi
3:56 AM34 °FPassing clouds.5 mph85%29.99 "Hg10 mi
2:56 AM35 °FPassing clouds.3 mph82%29.98 "Hg10 mi
1:56 AM39 °FPartly cloudy.5 mph76%29.98 "Hg10 mi
12:56 AM41 °FPassing clouds.7 mph74%29.95 "Hg10 mi
11:56 PM
Sun, Mar 29
45 °FOvercast.9 mph63%29.94 "Hg10 mi
10:56 PM46 °FMostly cloudy.12 mph66%29.91 "Hg10 mi
9:56 PM46 °FMostly cloudy.20 mph71%29.87 "Hg10 mi
8:56 PM44 °FMostly cloudy.13 mph71%29.83 "Hg10 mi
7:56 PM43 °FMore clouds than sun.14 mph71%29.83 "Hg10 mi
6:56 PM44 °FPartly sunny.20 mph65%29.85 "Hg10 mi
5:56 PM40 °FOvercast.20 mph70%29.86 "Hg10 mi
4:56 PM37 °FOvercast.13 mph70%29.90 "Hg10 mi
3:56 PM36 °FOvercast.16 mph75%29.92 "Hg10 mi
2:56 PM35 °FLight rain. Overcast.20 mph78%29.99 "Hg5 mi
Weather by CustomWeather, © 2015

See weather overviewHow to use our weather pages